Location: Strom
(41.0500°S, 175.9667°E)
Time: 05:34:07
(UTC+00:00)

Daily predictions for brighter satellites

Satellite Brightness Start Highest point End
(mag) Time Altitude Azimuth Time Altitude Azimuth Time Altitude Azimuth
USA 229 3.5 08:08:22 10° SW 08:14:55 86° WNW 08:20:49 10° NNE
USA 229 DEB 3.5 08:08:27 10° SW 08:15:01 86° WNW 08:20:55 10° NNE
Cosmos 1066 Rocket 4.4 08:09:11 10° S 08:15:05 86° W 08:20:47 10° N
Nadezhda 1 Rocket 4.3 08:08:51 10° S 08:15:13 57° E 08:21:31 10° NNE
YAOGAN 1 4.2 08:13:00 10° S 08:17:02 39° WSW 08:21:01 10° NW
OAO 3 Rocket 3.7 08:12:43 10° WNW 08:17:08 40° N 08:21:30 10° ENE
Meteor 1-18 Rocket 4.4 08:11:47 10° S 08:17:47 89° E 08:23:35 10° N
Cosmos 1271 Rocket 3.6 08:16:30 10° SSE 08:19:31 28° ESE 08:22:30 10° NE
SPOT 5 3.9 08:16:14 10° SSE 08:20:56 31° E 08:25:37 10° NNE
SL-16 R/B 3.9 08:17:26 10° S 08:21:40 21° SE 08:25:52 10° E
Cosmos 1536 2.6 08:19:09 10° N 08:22:50 70° E 08:26:36 10° SSE
BREEZE-M DEB (TANK) 4.0 08:11:01 10° WSW 08:22:58 56° SSE 08:26:29 10° E
Cosmos 2297 Rocket 2.6 08:18:09 10° NNW 08:23:48 71° WSW 08:29:31 10° SSE
BREEZE-M DEB (TANK) 3.6 08:19:36 10° WSW 08:23:58 37° S 08:26:30 10° ESE
Cosmos 1980 3.7 08:26:08 10° SSW 08:31:52 83° ESE 08:37:32 10° NNE
Resurs 01 Rocket 2.1 08:27:44 10° S 08:32:13 68° WSW 08:36:38 10° NNW
ATLAS CENTAUR R/B 0.6 08:31:41 10° NNW 08:34:30 47° ENE 08:37:20 10° SE
Cosmos 1908 2.5 08:38:34 10° N 08:41:31 90° E 08:44:31 10° S
CZ-4B R/B 4.2 08:37:11 10° SE 08:41:38 26° E 08:45:25 13° NE
Cosmos 2219 4.2 08:37:42 10° NNE 08:42:22 27° ENE 08:47:04 10° SE
Cosmos 2237 Rocket 2.3 08:38:41 10° SSW 08:44:28 84° WNW 08:49:58 11° NNE
SL-14 R/B 3.1 08:44:24 10° S 08:48:13 74° E 08:51:34 13° NNE
CZ-4B R/B 4.2 08:50:42 10° S 08:54:33 61° WSW 08:58:12 10° NNW
USA 267 4.3 08:48:36 10° SE 08:54:56 50° SSW 09:01:14 10° WNW
ATLAS 3B R/B 3.3 08:49:16 10° SW 08:55:20 49° WNW 09:01:43 10° N
Cosmos 1607 4.0 08:49:03 10° NNW 08:55:23 68° ENE 09:01:47 10° SE
USA 186 2.6 08:58:08 10° SE 09:00:33 25° E 09:01:03 24° ENE
Cosmos 2263 Rocket 2.3 08:55:45 10° N 09:01:17 57° ENE 09:06:52 10° SSE
Cosmos 1538 Rocket 4.1 08:56:14 10° NNW 09:01:36 85° WSW 09:07:02 10° SSE
Cosmos 1766 3.4 08:59:20 10° NNW 09:02:39 60° W 09:06:03 10° S
Meteor 1-14 Rocket 4.4 08:58:12 10° NNW 09:03:45 76° W 09:09:24 10° S
CZ-4C R/B 3.3 08:56:57 10° N 09:05:41 54° ENE 09:13:12 10° SE
Helios 1A 3.0 09:05:15 15° N 09:08:31 74° WNW 09:12:33 10° SSW
OAO 2 Rocket 4.1 09:05:15 10° WNW 09:09:51 35° NNW 09:12:27 21° NE
Meteor 1-11 Rocket 3.7 09:08:37 10° N 09:14:14 77° E 09:19:51 10° SSE
CZ-4 R/B 1.6 09:10:34 10° S 09:14:24 65° WSW 09:18:14 10° NNW
Cosmos 1766 Rocket 3.5 09:11:16 16° N 09:14:38 65° E 09:18:59 10° SSE
Cosmos 2227 Rocket 2.7 09:09:27 10° NW 09:15:04 63° WSW 09:20:47 10° SSE
Cosmos 1818 3.6 09:09:40 10° SW 09:15:06 81° WNW 09:18:43 22° NNE
Terra 2.4 09:11:35 10° SSE 09:16:03 39° E 09:18:29 23° NNE
Cosmos 1328 Rocket 3.5 09:16:13 10° S 09:20:39 70° E 09:23:05 25° NNE
Feng Yun 1-1 Rocket 4.3 09:16:55 10° SSE 09:22:55 77° ENE 09:28:38 10° N
Meteor 1-13 Rocket 4.3 09:17:37 10° S 09:23:31 77° E 09:27:22 22° NNE
MetOp-B 4.3 09:18:41 10° SSE 09:24:04 57° E 09:27:51 19° N
Sich 1 4.1 09:24:34 24° ENE 09:25:28 26° E 09:28:59 10° SSE
ISS -1.2 09:22:57 10° W 09:25:51 25° SSW 09:28:46 10° SE
Cosmos 1975 3.3 09:26:25 12° NNW 09:29:48 54° W 09:33:30 10° S
USA 234 3.3 09:25:21 22° NE 09:29:53 83° NW 09:36:31 10° SW
ATLAS 5 CENTAUR R/B 4.3 09:27:23 10° S 09:31:07 17° SSE 09:34:27 10° ESE
DELTA 2 R/B (1) 4.0 09:28:49 10° NW 09:33:55 38° NNE 09:39:03 10° E
Cosmos 2112 Rocket 4.3 09:31:44 24° NNE 09:34:42 49° ENE 09:39:53 10° SSE
Cosmos 2184 Rocket 4.2 09:32:18 23° NNE 09:36:04 55° E 09:42:10 10° SSE
CSL-04 Rocket 4.4 09:31:37 10° S 09:36:54 55° WSW 09:42:11 10° NNW
Cosmos 2056 Rocket 4.3 09:35:09 10° S 09:40:16 41° ESE 09:42:45 26° ENE
Cosmos 1300 3.2 09:40:20 22° NW 09:41:39 37° W 09:44:17 10° S
Cosmos 923 Rocket 4.0 09:38:18 10° NNW 09:43:32 83° WSW 09:48:53 10° SSE
Dummy Sat-02 4.5 09:46:35 46° NNE 09:47:33 76° E 09:51:14 10° S
USA 281 4.0 09:41:53 10° SE 09:47:38 31° ENE 09:49:23 27° NE
Cosmos 1470 3.7 09:45:24 15° NW 09:47:55 38° WSW 09:51:14 10° S
Cosmos 1703 3.3 09:47:45 10° S 09:51:02 44° E 09:51:11 44° E
Cosmos 1867 3.7 09:47:02 10° NW 09:52:26 74° WSW 09:57:52 10° SSE
Okean O Rocket 1.5 09:50:22 10° SSE 09:54:51 78° ENE 09:56:39 36° N
MOS 1 4.4 09:49:59 10° S 09:55:43 75° WSW 10:00:26 15° NNW
Cosmos 2084 Rocket 3.3 09:52:44 11° NW 09:56:44 84° SW 10:00:57 10° SE
Meteor 1-21 4.3 09:51:23 10° S 09:57:17 81° E 10:00:02 33° NNE
MOS 1-B 4.3 09:52:30 10° SSE 09:58:21 71° ENE 10:01:28 29° N
Okean-O 2.5 09:54:18 10° SSE 09:58:46 74° ENE 10:00:16 41° N
CZ-2C R/B 2.3 09:55:58 10° S 09:59:05 72° WSW 09:59:31 60° NW
Okean 2 4.1 09:56:01 10° S 09:59:39 35° ESE 10:00:00 34° E
OAO 3 Rocket 4.2 09:55:43 10° WNW 09:59:28 28° NNW 09:59:28 28° NNW
Cosmos 2082 3.7 09:56:32 14° NNW 10:01:36 86° WSW 10:07:22 10° SSE
IRS-1A Rocket 4.1 09:57:39 10° SSE 10:03:17 81° ENE 10:06:14 29° N
Cosmos 1371 Rocket 4.2 09:58:21 10° SSW 10:03:36 61° ESE 10:05:27 38° NE
Cosmos 1420 Rocket 4.1 09:59:27 10° SSW 10:04:45 74° WNW 10:06:51 37° N
ERS-1 Rocket 3.4 10:00:26 10° S 10:05:26 61° WSW 10:09:07 18° NNW
CRYOSAT 2 4.4 10:04:26 42° NNE 10:06:01 69° E 10:10:59 10° S
SL-16 R/B 2.4 10:00:35 10° SSW 10:06:16 65° WNW 10:08:44 34° N
Cosmos 1408 Rocket 3.6 10:06:45 51° NE 10:07:26 58° E 10:11:43 10° SSE
CZ-2C R/B 3.7 10:08:09 48° NE 10:09:13 65° ESE 10:13:41 10° S
ATLAS CENTAUR R/B 4.3 10:09:06 10° SW 10:09:33 10° SW 10:09:58 10° SW
Ariane Rocket 3.8 10:05:25 10° SSE 10:10:02 33° E 10:10:30 32° ENE
Cosmos 1048 Rocket 4.4 10:09:21 40° NE 10:10:17 43° ENE 10:15:19 10° SSE
Cosmos 494 Rocket 3.9 10:12:55 30° NNW 10:15:32 87° WSW 10:20:45 10° SSE
Cosmos 1680 Rocket 4.0 10:12:10 14° NW 10:16:37 58° WSW 10:21:56 10° SSE
Okean 3 Rocket 3.9 10:16:00 34° NNW 10:17:49 64° W 10:22:22 10° S
PSLV R/B 4.4 10:21:47 34° E 10:22:15 35° ESE 10:26:08 10° S
CZ-4B R/B 4.3 10:17:16 10° S 10:22:16 40° WSW 10:27:16 10° NW
USA 245 3.5 10:20:03 10° SSE 10:22:29 45° SSE 10:22:29 45° SSE
CZ-4B R/B 3.2 10:20:20 10° S 10:24:13 60° WSW 10:25:20 42° NW
Cosmos 2219 4.3 10:20:45 10° NW 10:26:13 44° WSW 10:31:43 10° SSE
Cosmos 1624 Rocket 3.9 10:21:15 10° SSW 10:26:33 84° WNW 10:27:55 51° N
Cosmos 1943 3.3 10:21:54 10° SSW 10:27:37 68° ESE 10:29:19 45° NE
Cosmos 2154 Rocket 4.3 10:25:13 25° NNW 10:28:58 65° W 10:35:13 10° S
Spot 2 Rocket 3.7 10:25:15 10° S 10:30:24 70° WSW 10:32:36 34° NNW
CZ-4C R/B 4.3 10:31:52 28° SE 10:31:52 28° SE 10:34:13 10° S
Cosmos 1743 Rocket 3.5 10:32:22 62° ENE 10:32:35 63° E 10:36:58 10° SSE
Cosmos 1515 Rocket 4.4 10:29:29 10° SSW 10:33:42 44° W 10:34:45 37° NW
GP-B 3.0 10:30:24 10° S 10:34:53 87° W 10:35:29 66° N
CZ-4B R/B 3.8 10:33:04 10° S 10:38:22 67° WSW 10:40:37 34° NW
Cosmos 1844 Rocket 2.6 10:37:00 49° N 10:38:28 71° ENE 10:44:09 10° SSE
SPOT 3 Rocket 3.5 10:36:07 10° SSE 10:41:25 79° ENE 10:42:34 55° N
Cosmos 1339 Rocket 4.5 10:37:59 10° S 10:44:19 85° W 10:46:27 45° N
Cosmos 2263 Rocket 4.4 10:41:08 10° WNW 10:45:35 23° SW 10:50:02 10° S
Cosmos 1666 Rocket 4.4 10:46:00 37° E 10:46:00 37° E 10:49:52 10° SSE
DELTA 2 DEB (DPAF) 3.8 10:46:24 74° SSE 10:46:24 74° SSE 10:50:00 10° S
Landsat 5 4.0 10:46:45 46° E 10:46:55 47° ESE 10:51:04 10° S
Cosmos 1452 Rocket 4.2 10:43:00 10° S 10:48:03 42° ESE 10:49:12 37° E
Nadezhda 3 Rocket 4.4 10:43:43 10° SSW 10:50:01 57° W 10:52:33 35° NNW
Terra 3.9 10:49:38 10° SSW 10:53:19 22° WSW 10:56:57 10° WNW
Geosat 4.1 10:49:20 10° SE 10:54:18 55° ENE 10:54:20 55° ENE
CZ-4C R/B 4.1 10:46:03 10° WNW 10:54:22 44° SW 11:01:20 10° SSE
Helios 1B rocket 2.6 10:53:19 10° SSE 10:56:17 56° SSE 10:56:17 56° SSE
NOSS 3-4 (A) 3.6 10:51:06 10° SSW 10:58:15 74° SE 11:00:12 46° NE
NOSS 3-4 (C) 3.6 10:51:15 10° SSW 10:58:24 74° SE 11:00:22 46° NE
SL-8 Rocket 3.9 10:58:57 52° N 11:00:35 79° E 11:06:51 10° S
Okean 1-7 3.9 10:56:38 10° S 11:00:26 38° ESE 11:00:26 38° ESE
Cosmos 1603 3.9 10:56:53 10° SSW 11:02:38 64° ESE 11:03:57 50° ENE
ISS -0.4 11:01:38 10° SW 11:03:33 14° S 11:05:28 10° SSE
Meteor 2-10 Rocket 4.3 11:08:10 36° NW 11:10:09 53° WSW 11:15:51 10° S
Cosmos 1633 Rocket 3.4 11:13:01 57° ESE 11:13:01 57° ESE 11:16:53 10° SSE
BlueWalker 3 3.1 11:14:19 37° SSE 11:14:19 37° SSE 11:16:46 10° SE
Cosmos 1821 Rocket 4.1 11:13:11 50° NE 11:14:19 57° E 11:20:24 10° SSE
ATLAS 5 CENTAUR R/B 1.9 11:09:20 10° SSW 11:15:01 68° SE 11:15:34 62° E
Cosmos 468 4.5 11:14:52 64° NNW 11:15:42 83° WSW 11:21:03 10° SSE
DELTA 2 R/B (1) 3.4 11:14:24 10° WNW 11:19:58 73° N 11:25:32 10° E
Cosmos 1758 4.2 11:21:43 41° WSW 11:21:43 41° WSW 11:24:52 10° S
Cosmos 1110 Rocket 4.0 11:18:32 10° SSW 11:23:49 67° WNW 11:24:13 64° NW
Cosmos 1727 Rocket 4.5 11:20:54 10° S 11:26:58 49° ESE 11:28:21 42° ENE
CZ-2C R/B 3.6 11:26:35 50° ENE 11:27:43 60° ESE 11:33:31 10° S
Cosmos 2366 rocket 4.1 11:28:07 48° NNW 11:29:55 70° W 11:36:22 10° S
Okean O Rocket 4.5 11:29:09 10° SW 11:30:21 11° WSW 11:31:35 10° WSW
USA 281 3.9 11:25:55 10° SSE 11:32:17 51° WSW 11:36:14 23° NW
Cosmos 1470 Rocket 3.8 11:36:12 61° SE 11:36:12 61° SE 11:40:00 10° SSE
Meteor 1-22 Rocket 4.1 11:34:55 70° N 11:35:38 88° E 11:41:14 10° S
Meteor 1-24 Rocket 3.8 11:33:53 10° S 11:39:44 65° ESE 11:40:31 58° ENE
Spot 1 4.3 11:40:53 70° ESE 11:40:53 70° ESE 11:45:24 10° S
Cosmos 1862 Rocket 4.2 11:43:08 10° SSW 11:46:54 47° WSW 11:46:54 47° WSW
Ariane Rocket 4.5 11:44:22 10° S 11:48:48 30° WSW 11:50:34 24° W
Cosmos 921 Rocket 4.4 11:51:28 28° ESE 11:51:28 28° ESE 11:54:06 10° SE
Cosmos 44 Rocket 3.4 11:51:33 64° ESE 11:51:33 64° ESE 11:55:56 10° SE
Cosmos 1809 Rocket 4.3 11:46:44 10° S 11:52:58 90° E 11:53:58 65° N
